• In Hungary
  • List of Countries
  • For 7 days
  • Water Temperature
  • Satellite Maps
  • Weather Map
  • News
  • Weather Widgets
  • user-avatar
    Login

    Hourly Weather Nizhniy Spass

    Today, 15 November, Thursday

    Time Temperature Precipitation Wind Pressure Humidity
    00:00 -3°C° 0 mm 2 mps 756 mmHg 80%
    01:00 -2°C° 0 mm 2 mps 757 mmHg 80%
    02:00 -2°C° 0 mm 2 mps 757 mmHg 82%
    03:00 -2°C° 0 mm 2 mps 758 mmHg 83%
    04:00 -2°C° 0 mm 2 mps 758 mmHg 83%
    05:00 -2°C° 0 mm 2 mps 758 mmHg 83%
    06:00 -2°C° 0 mm 2 mps 759 mmHg 82%
    07:00 -2°C° 0 mm 2 mps 759 mmHg 81%
    08:00 -1°C° 0 mm 2 mps 760 mmHg 81%
    09:00 -1°C° 0 mm 2 mps 761 mmHg 79%
    10:00 -1°C° 0 mm 2 mps 761 mmHg 77%
    11:00 +1°C° 0 mm 2 mps 762 mmHg 75%
    12:00 +1°C° 0 mm 2 mps 762 mmHg 75%
    13:00 +2°C° 0 mm 1 mps 762 mmHg 75%
    14:00 +2°C° 0 mm 1 mps 762 mmHg 75%
    15:00 +1°C° 0 mm 1 mps 763 mmHg 76%
    16:00 +1°C° 0 mm 1 mps 763 mmHg 78%
    17:00 +1°C° 0 mm 1 mps 764 mmHg 79%
    18:00 0°C° 0 mm 1 mps 764 mmHg 80%
    19:00 0°C° 0 mm 1 mps 764 mmHg 81%
    20:00 0°C° 0 mm 1 mps 765 mmHg 81%
    21:00 0°C° 0 mm 1 mps 765 mmHg 81%
    22:00 0°C° 0 mm 1 mps 765 mmHg 81%
    23:00 0°C° 0 mm 1 mps 766 mmHg 81%

    Tomorrow, 16 November, Friday

    Time Temperature Precipitation Wind Pressure Humidity
    00:00 0°C° 0 mm 1 mps 766 mmHg 81%
    01:00 0°C° 0 mm 1 mps 766 mmHg 81%
    02:00 0°C° 0 mm 1 mps 767 mmHg 82%
    03:00 0°C° 0 mm 1 mps 767 mmHg 82%
    04:00 0°C° 0 mm 1 mps 767 mmHg 82%
    05:00 0°C° 0 mm 1 mps 767 mmHg 81%
    06:00 0°C° 0 mm 1 mps 768 mmHg 82%
    07:00 0°C° 0 mm 1 mps 768 mmHg 83%
    08:00 0°C° 0 mm 1 mps 768 mmHg 84%
    09:00 0°C° 0 mm 1 mps 768 mmHg 81%
    10:00 +1°C° 0 mm 1 mps 768 mmHg 77%
    11:00 +1°C° 0 mm 2 mps 769 mmHg 74%
    12:00 +2°C° 0 mm 1 mps 769 mmHg 75%
    13:00 +2°C° 0 mm 1 mps 769 mmHg 76%
    14:00 +2°C° 0 mm 1 mps 769 mmHg 78%
    15:00 +1°C° 0 mm 1 mps 769 mmHg 81%
    16:00 +1°C° 0 mm 1 mps 768 mmHg 84%
    17:00 -2°C° 0 mm 2 mps 768 mmHg 87%
    18:00 -2°C° 0 mm 2 mps 768 mmHg 88%
    19:00 -2°C° 0 mm 2 mps 768 mmHg 88%
    20:00 -2°C° 0 mm 2 mps 768 mmHg 89%
    21:00 -2°C° 0 mm 2 mps 768 mmHg 89%
    22:00 -2°C° 0 mm 2 mps 768 mmHg 90%
    23:00 -2°C° 0 mm 2 mps 768 mmHg 90%

    Day after tomorrow, 17 November, Saturday

    Time Temperature Precipitation Wind Pressure Humidity
    00:00 -2°C° 0 mm 2 mps 767 mmHg 90%
    01:00 -2°C° 0 mm 2 mps 767 mmHg 90%
    02:00 -2°C° 0 mm 3 mps 767 mmHg 90%
    03:00 -2°C° 0 mm 3 mps 767 mmHg 90%
    04:00 -2°C° 0 mm 3 mps 766 mmHg 90%
    05:00 -2°C° 0 mm 3 mps 766 mmHg 91%
    06:00 -2°C° 0 mm 3 mps 765 mmHg 90%
    07:00 -1°C° 0 mm 3 mps 765 mmHg 89%
    08:00 -1°C° 0 mm 3 mps 764 mmHg 88%
    09:00 -2°C° 0 mm 4 mps 764 mmHg 85%
    10:00 -1°C° 0 mm 4 mps 763 mmHg 83%
    11:00 0°C° 0 mm 4 mps 762 mmHg 80%
    12:00 0°C° 0.1 mm 4 mps 762 mmHg 81%
    13:00 0°C° 0.1 mm 4 mps 761 mmHg 82%
    14:00 0°C° 0.1 mm 4 mps 760 mmHg 84%
    15:00 -1°C° 0.4 mm 4 mps 760 mmHg 85%
    16:00 -1°C° 0.4 mm 4 mps 759 mmHg 87%
    17:00 -1°C° 0.4 mm 4 mps 758 mmHg 89%
    18:00 -1°C° 0.2 mm 4 mps 757 mmHg 89%
    19:00 -1°C° 0.2 mm 4 mps 756 mmHg 90%
    20:00 -1°C° 0.2 mm 4 mps 755 mmHg 90%
    21:00 -1°C° 0.3 mm 4 mps 755 mmHg 91%
    22:00 -1°C° 0.3 mm 4 mps 754 mmHg 91%
    23:00 0°C° 0.3 mm 3 mps 753 mmHg 92%

    18 November, Sunday

    Time Temperature Precipitation Wind Pressure Humidity
    00:00 0°C° 0.1 mm 3 mps 752 mmHg 93%
    01:00 0°C° 0.1 mm 3 mps 752 mmHg 94%
    02:00 0°C° 0.1 mm 3 mps 751 mmHg 94%
    03:00 +1°C° 0.1 mm 2 mps 751 mmHg 95%
    04:00 +1°C° 0.1 mm 2 mps 750 mmHg 96%
    05:00 +1°C° 0.1 mm 2 mps 750 mmHg 96%
    06:00 +2°C° 0.2 mm 1 mps 749 mmHg 97%
    07:00 +1°C° 0.2 mm 1 mps 749 mmHg 97%
    08:00 +1°C° 0.2 mm 1 mps 749 mmHg 97%
    09:00 +2°C° 0.1 mm 1 mps 749 mmHg 96%
    10:00 +2°C° 0.1 mm 1 mps 749 mmHg 96%
    11:00 +2°C° 0.1 mm 0 mps 749 mmHg 95%
    12:00 +2°C° 0.1 mm 0 mps 750 mmHg 95%
    13:00 +2°C° 0.1 mm 0 mps 750 mmHg 96%
    14:00 +2°C° 0.1 mm 0 mps 750 mmHg 96%
    15:00 +1°C° 0.1 mm 0 mps 751 mmHg 96%
    16:00 +2°C° 0.1 mm 1 mps 751 mmHg 96%
    17:00 +1°C° 0.1 mm 1 mps 751 mmHg 97%
    18:00 +1°C° 0.2 mm 1 mps 752 mmHg 97%
    19:00 +1°C° 0.2 mm 1 mps 752 mmHg 97%
    20:00 +1°C° 0.2 mm 1 mps 752 mmHg 97%
    21:00 -1°C° 0.1 mm 2 mps 753 mmHg 97%
    22:00 -1°C° 0.1 mm 2 mps 753 mmHg 97%
    23:00 -1°C° 0.1 mm 2 mps 754 mmHg 97%

    19 November, Monday

    Time Temperature Precipitation Wind Pressure Humidity
    00:00 -1°C° 0.1 mm 2 mps 754 mmHg 96%
    01:00 -1°C° 0.1 mm 2 mps 755 mmHg 95%
    02:00 -1°C° 0.1 mm 3 mps 755 mmHg 95%
    03:00 -1°C° 0.2 mm 3 mps 756 mmHg 94%
    04:00 -1°C° 0.2 mm 3 mps 756 mmHg 94%
    05:00 -1°C° 0.2 mm 3 mps 757 mmHg 94%
    06:00 -1°C° 0.1 mm 3 mps 757 mmHg 93%
    07:00 -1°C° 0.1 mm 3 mps 758 mmHg 93%
    08:00 -1°C° 0.1 mm 3 mps 758 mmHg 92%
    09:00 -1°C° 0 mm 3 mps 759 mmHg 90%
    10:00 -1°C° 0 mm 3 mps 760 mmHg 89%
    11:00 0°C° 0 mm 3 mps 760 mmHg 87%
    12:00 -1°C° 0 mm 3 mps 761 mmHg 88%
    13:00 -1°C° 0 mm 2 mps 761 mmHg 88%
    14:00 -1°C° 0 mm 2 mps 762 mmHg 88%
    15:00 -1°C° 0 mm 2 mps 762 mmHg 90%
    16:00 -2°C° 0 mm 2 mps 762 mmHg 92%
    17:00 -3°C° 0 mm 2 mps 763 mmHg 95%
    18:00 -3°C° 0 mm 2 mps 763 mmHg 95%
    19:00 -3°C° 0 mm 2 mps 763 mmHg 95%
    20:00 -4°C° 0 mm 2 mps 763 mmHg 96%
    21:00 -4°C° 0 mm 2 mps 764 mmHg 96%
    22:00 -2°C° 0 mm 1 mps 764 mmHg 96%
    23:00 -2°C° 0 mm 1 mps 764 mmHg 96%

    20 November, Tuesday

    Time Temperature Precipitation Wind Pressure Humidity
    00:00 -2°C° 0 mm 1 mps 764 mmHg 96%
    01:00 -1°C° 0 mm 1 mps 764 mmHg 96%
    02:00 -1°C° 0 mm 1 mps 764 mmHg 96%
    03:00 -1°C° 0 mm 1 mps 764 mmHg 96%
    04:00 -1°C° 0 mm 1 mps 764 mmHg 96%
    05:00 0°C° 0 mm 1 mps 764 mmHg 96%
    06:00 0°C° 0 mm 1 mps 764 mmHg 95%
    07:00 0°C° 0 mm 1 mps 764 mmHg 95%
    08:00 0°C° 0 mm 1 mps 763 mmHg 94%
    09:00 0°C° 0 mm 1 mps 763 mmHg 92%
    10:00 +1°C° 0 mm 1 mps 763 mmHg 91%
    11:00 +1°C° 0 mm 1 mps 763 mmHg 89%
    12:00 +1°C° 0 mm 1 mps 763 mmHg 89%
    13:00 +1°C° 0 mm 1 mps 762 mmHg 88%
    14:00 +1°C° 0 mm 1 mps 762 mmHg 88%
    15:00 +1°C° 0 mm 1 mps 762 mmHg 89%
    16:00 0°C° 0 mm 1 mps 762 mmHg 91%
    17:00 0°C° 0 mm 1 mps 761 mmHg 92%
    18:00 -1°C° 0 mm 1 mps 761 mmHg 93%
    19:00 -1°C° 0 mm 1 mps 761 mmHg 94%
    20:00 -2°C° 0 mm 1 mps 761 mmHg 95%
    21:00 -2°C° 0 mm 1 mps 761 mmHg 95%
    22:00 -2°C° 0 mm 1 mps 761 mmHg 95%
    23:00 -2°C° 0 mm 1 mps 761 mmHg 95%
    Show more